Terminal Aerodrome Forecast
Issued by NWS

Home | Current Version | Previous Version | Text Only | Print | Product List | Glossary On
Versions: 1 2 3 4 5 6 7 8 9 10 11 12 13 14 15 16 17 18 19 20 21 22 23 24 25 26 27 28 29 30 31 32
000
FTUS43 KPAH 260732 AAB
TAFOWB
TAF AMD
KOWB 260732Z 2608/2706 02011KT 3SM -RA SCT008 OVC025
      TEMPO 2608/2609 1SM TSRA BR OVC008CB
     FM261000 34012G21KT 4SM -SHRA BR BKN015
     FM262100 34009KT P6SM SCT250=

USA.gov is the U.S. government's official web portal to all federal, state and local government web resources and services.